User: anonymous   Login
Location: Unspecified
(0.0000°N, 0.0000°E)
Time: 10:10:46
(UTC+01:00)
Language:

CZ-4 R/B - Orbit

View from above orbital plane
View from above orbital plane
View from above satellite
View from above satellite

Ground track
Ground track

The orbit data is extracted from the following two-line orbital elements,

1 28059U 03049C   14303.47505237  .00000452  00000-0  12220-3 0  2022
2 28059 098.6830 146.8739 0049334 292.1682 125.9543 14.52185903584229
Epoch (UTC): 30 October 2014 11:24:04
Eccentricity: 0.0049334
inclination: 98.6830°
perigee height: 683 km
apogee height: 753 km
right ascension of ascending node: 146.8739°
argument of perigee: 292.1682°
revolutions per day: 14.52185903
mean anomaly at epoch: 125.9543°
orbit number at epoch: 58422

The dashed part of the orbit path shows where the satellite is in the earth's shadow,  

DLR